Scottsbluff, NE

6:47 PM MST on November 17, 2019 (GMT -0700)
Heilig

Weather History for KBFF - September, 2019

Change the Weather History Date:

Saturday, September 28, 2019

  Actual Average Record
Temperature  
Mean Temperature 51 °F -  
Max Temperature 59 °F 72 °F 93 °F (2011)
Min Temperature 48 °F 40 °F 20 °F (1895)
Degree Days  
Heating Degree Days 14    
Growing Degree Days 1 (Base 50)    
Moisture  
Dew Point 49 °F    
Average Humidity 87    
Maximum Humidity 96    
Minimum Humidity 65    
Precipitation  
Precipitation 0.08 in - - ()
Sea Level Pressure  
Sea Level Pressure 29.90 in    
Wind  
Wind Speed 13 mph (ESE)    
Max Wind Speed 25 mph    
Max Gust Speed 32 mph    
Visibility 9 miles    
Events Rain    
Averages and records for this station are not official NWS values.
T = Trace of Precipitation, MM = Missing Value Source: NWS Daily Summary

Daily Weather History Graph

Daily Weather History Graph

Search for Another Location

Airport or City:

Astronomy

Sep. 28, 2019 Rise Set
Actual Time 6:47 AM MDT 6:41 PM MDT
Civil Twilight 6:20 AM MDT 7:09 PM MDT
Nautical Twilight 5:47 AM MDT 7:41 PM MDT
Astronomical Twilight 5:14 AM MDT 8:14 PM MDT
Moon 6:25 AM MDT (9/28) 7:09 PM MDT (9/28)
Length of Visible Light 12h 49m
Length of Day
11h 53m
Waning Crescent, 0% of the Moon is Illuminated
Sep 28
Waning Crescent
Sep 28
New
Oct 5
First Quarter
Oct 13
Full
Oct 21
Last Quarter

Hourly Weather History & Observations

Time (MDT) Temp. Dew Point Humidity Pressure Visibility Wind Dir Wind Speed Gust Speed Precip Events Conditions
12:02 AM 52.0 °F 50.0 °F 93% 30.00 in 10.0 mi East 9.2 mph - N/A   Overcast
12:08 AM 52.0 °F 50.0 °F 93% 30.00 in 10.0 mi East 9.2 mph - N/A   Overcast
12:15 AM 52.0 °F 50.0 °F 93% 30.00 in 10.0 mi East 9.2 mph - N/A   Overcast
12:53 AM 52.0 °F 50.0 °F 93% 29.91 in 10.0 mi East 9.2 mph - 0.00 in Rain Light Rain
1:21 AM 52.0 °F 50.0 °F 93% 30.00 in 10.0 mi East 8.1 mph - 0.01 in   Overcast
1:53 AM 51.1 °F 50.0 °F 96% 29.92 in 4.0 mi ESE 11.5 mph - 0.04 in Rain Rain
2:04 AM 51.1 °F 50.0 °F 96% 29.99 in 5.0 mi ESE 12.7 mph - 0.02 in Rain Light Rain
2:32 AM 51.1 °F 50.0 °F 96% 29.99 in 10.0 mi SE 13.8 mph - 0.02 in   Overcast
2:53 AM 51.1 °F 50.0 °F 96% 29.91 in 10.0 mi ESE 15.0 mph - 0.02 in   Overcast
3:02 AM 51.1 °F 50.0 °F 96% 30.00 in 10.0 mi SE 10.4 mph - 0.00 in Rain Light Rain
3:10 AM 51.1 °F 50.0 °F 96% 30.00 in 10.0 mi SE 12.7 mph - 0.00 in Rain Light Rain
3:53 AM 51.1 °F 50.0 °F 96% 29.92 in 10.0 mi SE 11.5 mph - 0.00 in   Overcast
4:00 AM 51.1 °F 50.0 °F 96% 29.99 in 10.0 mi SE 12.7 mph - N/A   Overcast
4:28 AM 51.1 °F 50.0 °F 96% 29.98 in 9.0 mi SE 11.5 mph - N/A   Overcast
4:53 AM 51.1 °F 50.0 °F 96% 29.94 in 10.0 mi SE 9.2 mph - N/A   Overcast
5:03 AM 51.1 °F 48.9 °F 92% 30.00 in 10.0 mi ESE 12.7 mph - N/A   Overcast
5:53 AM 51.1 °F 48.0 °F 89% 29.94 in 10.0 mi ESE 15.0 mph - N/A   Overcast
6:53 AM 50.0 °F 46.9 °F 89% 29.96 in 10.0 mi ESE 17.3 mph - 0.01 in Rain Light Rain
7:36 AM 48.9 °F 46.9 °F 93% 30.00 in 10.0 mi ESE 17.3 mph - 0.00 in   Overcast
7:53 AM 48.9 °F 46.9 °F 93% 29.99 in 6.0 mi SE 11.5 mph - 0.02 in Rain Rain
8:53 AM 50.0 °F 48.0 °F 93% 29.99 in 10.0 mi SE 12.7 mph - 0.03 in   Overcast
9:53 AM 51.1 °F 48.0 °F 89% 29.97 in 10.0 mi SE 13.8 mph - 0.00 in   Overcast
10:42 AM 53.1 °F 46.0 °F 77% 30.00 in 10.0 mi SE 17.3 mph 25.3 mph N/A   Overcast
10:53 AM 53.1 °F 46.0 °F 77% 29.94 in 10.0 mi SE 18.4 mph 24.2 mph N/A   Overcast
11:53 AM 55.0 °F 46.9 °F 74% 29.90 in 10.0 mi SE 16.1 mph 26.5 mph N/A   Overcast
12:53 PM 55.9 °F 46.0 °F 69% 29.87 in 10.0 mi SE 20.7 mph 28.8 mph N/A   Overcast
1:53 PM 57.9 °F 46.0 °F 65% 29.82 in 10.0 mi SE 18.4 mph 28.8 mph N/A   Overcast
2:53 PM 57.9 °F 46.0 °F 65% 29.79 in 10.0 mi SE 21.9 mph 26.5 mph N/A   Overcast
3:53 PM 57.0 °F 46.9 °F 69% 29.76 in 10.0 mi ESE 24.2 mph 31.1 mph N/A   Overcast
4:53 PM 54.0 °F 46.9 °F 77% 29.76 in 10.0 mi SE 25.3 mph 32.2 mph N/A   Overcast
5:53 PM 54.0 °F 46.9 °F 77% 29.76 in 10.0 mi SE 19.6 mph 28.8 mph N/A   Overcast
6:53 PM 54.0 °F 48.0 °F 80% 29.76 in 10.0 mi ESE 18.4 mph 27.6 mph N/A   Overcast
7:53 PM 54.0 °F 48.0 °F 80% 29.77 in 10.0 mi SE 20.7 mph 27.6 mph N/A   Overcast
8:53 PM 54.0 °F 48.0 °F 80% 29.76 in 10.0 mi ESE 20.7 mph 28.8 mph N/A   Overcast
9:03 PM 54.0 °F 48.9 °F 83% 29.81 in 10.0 mi SE 19.6 mph 26.5 mph N/A   Overcast
9:53 PM 54.0 °F 48.9 °F 83% 29.76 in 10.0 mi ESE 16.1 mph - N/A   Overcast
10:53 PM 54.0 °F 51.1 °F 90% 29.75 in 10.0 mi SE 13.8 mph - N/A   Overcast
11:06 PM 54.0 °F 51.1 °F 90% 29.81 in 10.0 mi ESE 13.8 mph - N/A   Overcast
11:53 PM 53.1 °F 52.0 °F 96% 29.75 in 6.0 mi ESE 9.2 mph - N/A   Overcast